This is the latest recevied weather packets stored in our database for station/object KI4BSX. If no packets are shown the sender has not sent any weather packets the latest 10 day(s).
| Time | Temp. | Humidity | Pressure | Rain* | Wind** | Luminosity | Snow |
|---|---|---|---|---|---|---|---|
| 1777650080 | 16.11° C | 61% | 1018.1 hPa | 0 mm | - | - | - |
| 1777649777 | 16.11° C | 61% | 1017.9 hPa | 0 mm | - | - | - |
| 1777649474 | 16.11° C | 62% | 1017.9 hPa | 0 mm | - | - | - |
| 1777649171 | 16.11° C | 62% | 1018 hPa | 0 mm | - | - | - |
| 1777648868 | 16.67° C | 62% | 1018 hPa | 0 mm | - | - | - |
| 1777648261 | 16.67° C | 63% | 1017.6 hPa | 0 mm | - | - | - |
| 1777647956 | 15.56° C | 63% | 1017.9 hPa | 0 mm | - | - | - |
| 1777647653 | 15.56° C | 63% | 1017.7 hPa | 0 mm | - | - | - |
| 1777647350 | 16.11° C | 63% | 1017.9 hPa | 0 mm | - | - | - |
| 1777647047 | 16.11° C | 63% | 1017.5 hPa | 0 mm | - | - | - |
| 1777646743 | 15.56° C | 64% | 1017.3 hPa | 0 mm | - | - | - |
| 1777646438 | 15.56° C | 64% | 1017.3 hPa | 0 mm | - | - | - |
| 1777646135 | 15° C | 65% | 1017.4 hPa | 0 mm | - | - | - |
| 1777645832 | 15° C | 65% | 1017.5 hPa | 0 mm | - | - | - |
| 1777645530 | 15° C | 65% | 1017.5 hPa | 0 mm | - | - | - |
| 1777645225 | 15° C | 66% | 1017.4 hPa | 0 mm | - | - | - |
| 1777644921 | 15° C | 67% | 1017.3 hPa | 0 mm | - | - | - |
| 1777644619 | 15° C | 67% | 1017.5 hPa | 0 mm | - | - | - |
| 1777644315 | 15° C | 68% | 1017.3 hPa | 0 mm | - | - | - |
| 1777644011 | 15° C | 69% | 1017.5 hPa | 0 mm | - | - | - |
| 1777643708 | 15° C | 69% | 1017.6 hPa | 0 mm | - | - | - |
| 1777643406 | 15° C | 70% | 1017.4 hPa | 0 mm | - | - | - |
| 1777643102 | 15° C | 69% | 1017.4 hPa | 0 mm | - | - | - |
| 1777642799 | 15° C | 70% | 1017.4 hPa | 0 mm | - | - | - |
| 1777642495 | 14.44° C | 70% | 1017.5 hPa | 0 mm | - | - | - |
* Rain latest hour (hover to see other rain measurements)
** Current wind speed in m/s (hover to see current wind gust speed)